Location: Champseau
(45.8333°N, 1.7667°E)
Time: 19:29:26
(UTC+00:00)

XW-2B - Visible Passes

Search period start: 07 December 2021 00:00
Search period end: 17 December 2021 00:00
Orbit: 504 x 522 km, 97.5° (Epoch: 07 December)

Date Brightness Start Highest point End Pass type
(mag) Time Alt. Az. Time Alt. Az. Time Alt. Az.
07 Dec ? 05:22:26 10° NE 05:25:47 29° E 05:29:08 10° SSE visible
07 Dec ? 17:38:16 10° SSW 17:41:39 32° W 17:45:06 10° NNW visible
08 Dec ? 05:07:14 10° NE 05:10:05 20° E 05:12:54 10° SE visible
08 Dec ? 06:40:43 10° N 06:44:10 33° WNW 06:47:36 10° SW visible
08 Dec ? 17:22:20 10° S 17:25:59 50° W 17:29:41 10° NNW visible
09 Dec ? 04:52:24 10° ENE 04:54:19 13° E 04:56:14 10° ESE visible
09 Dec ? 06:24:55 10° N 06:28:37 50° WNW 06:32:17 10° SSW visible
09 Dec ? 17:06:35 10° S 17:10:20 79° WSW 17:14:09 10° NNW visible
10 Dec ? 06:09:12 10° N 06:13:02 77° WNW 06:16:49 10° SSW visible
10 Dec ? 16:51:00 10° SSE 16:54:43 67° ENE 16:58:30 10° N visible
11 Dec ? 05:53:35 10° NNE 05:57:24 69° ESE 06:01:10 10° S visible
11 Dec ? 18:11:09 10° SW 18:13:22 15° W 18:15:36 10° NW visible
12 Dec ? 05:38:04 10° NNE 05:41:44 44° E 05:45:22 10° S visible
12 Dec ? 17:54:38 10° SW 17:57:36 22° W 18:00:36 10° NW visible
13 Dec ? 05:22:40 10° NE 05:26:02 29° E 05:29:22 10° SSE visible
13 Dec ? 17:38:27 10° SSW 17:41:52 32° W 17:45:19 10° NNW visible
14 Dec ? 05:07:26 10° NE 05:10:17 20° E 05:13:06 10° SE visible
14 Dec ? 06:40:55 10° N 06:44:22 33° WNW 06:47:47 10° SW visible
14 Dec ? 17:22:30 10° S 17:26:10 50° W 17:29:52 10° NNW visible
15 Dec ? 04:52:34 10° ENE 04:54:30 13° E 04:56:24 10° ESE visible
15 Dec ? 06:25:06 10° N 06:28:47 49° WNW 06:32:26 10° SSW visible
15 Dec ? 17:06:44 10° S 17:10:29 79° WSW 17:14:18 10° NNW visible
16 Dec ? 06:09:22 10° N 06:13:11 77° WNW 06:16:57 10° SSW visible
16 Dec ? 16:51:07 10° SSE 16:54:51 67° ENE 16:58:38 10° N visible
